Location: Ariel
(45.9570°N, 122.5700°W)
Time: 01:44:57
(UTC-07:00)

Transit 2A Rocket - Pass Details

Date: 22 July 2019
Orbit: 590 x 913 km, 66.7° (Epoch: 18 August)

Event Time Altitude Azimuth Distance (km) Brightness Sun altitude
Exits shadow 02:36:19 14° 137° (SE) 2,300 7.2 -21.3°
Maximum altitude 02:39:02 18° 106° (ESE) 2,006 7.2 -21.2°
Drops below altitude 10° 02:42:50 10° 65° (ENE) 2,487 8.3 -20.9°
Sets 02:45:58 0° 47° (NE) 3,373 9.5 -20.7°
